This is the latest recevied weather packets stored in our database for station/object WB0OCV. If no packets are shown the sender has not sent any weather packets the latest 10 day(s).
| Time | Temp. | Humidity | Pressure | Rain* | Wind** | Luminosity | Snow |
|---|---|---|---|---|---|---|---|
| 1777911148 | 16.67° C | 53% | 1013.7 hPa | 0 mm | - | 812 W/m² | - |
| 1777910846 | 17.22° C | 53% | 1013.6 hPa | 0 mm | - | 808 W/m² | - |
| 1777910542 | 17.22° C | 53% | 1013.6 hPa | 0 mm | - | 806 W/m² | - |
| 1777910239 | 17.78° C | 54% | 1013.6 hPa | 0 mm | - | 804 W/m² | - |
| 1777909936 | 17.22° C | 55% | 1013.8 hPa | 0 mm | - | 798 W/m² | - |
| 1777909633 | 17.22° C | 52% | 1013.7 hPa | 0 mm | - | 792 W/m² | - |
| 1777909331 | 17.22° C | 51% | 1013.6 hPa | 0 mm | - | 787 W/m² | - |
| 1777909028 | 17.22° C | 51% | 1013.9 hPa | 0 mm | - | 782 W/m² | - |
| 1777908725 | 17.22° C | 52% | 1013.9 hPa | 0 mm | - | 775 W/m² | - |
| 1777908422 | 17.22° C | 54% | 1013.8 hPa | 0 mm | - | 768 W/m² | - |
| 1777908119 | 16.11° C | 52% | 1014 hPa | 0 mm | - | 761 W/m² | - |
| 1777907815 | 16.67° C | 52% | 1014.1 hPa | 0 mm | - | 754 W/m² | - |
| 1777907516 | 16.67° C | 56% | 1013.8 hPa | 0 mm | - | 745 W/m² | - |
| 1777907213 | 16.67° C | 51% | 1014.1 hPa | 0 mm | - | 736 W/m² | - |
| 1777906910 | 16.11° C | 52% | 1014.1 hPa | 0 mm | - | 730 W/m² | - |
| 1777906607 | 15.56° C | 51% | 1014.3 hPa | 0 mm | - | 720 W/m² | - |
| 1777906302 | 15.56° C | 49% | 1014.1 hPa | 0 mm | - | 712 W/m² | - |
| 1777906000 | 15.56° C | 55% | 1014.1 hPa | 0 mm | - | 703 W/m² | - |
| 1777905696 | 16.11° C | 54% | 1014.4 hPa | 0 mm | - | 690 W/m² | - |
| 1777905393 | 15.56° C | 56% | 1014.5 hPa | 0 mm | - | 681 W/m² | - |
| 1777905091 | 15.56° C | 54% | 1014.3 hPa | 0 mm | - | 670 W/m² | - |
| 1777904788 | 16.11° C | 56% | 1014.4 hPa | 0 mm | - | 663 W/m² | - |
| 1777904485 | 15.56° C | 55% | 1014.1 hPa | 0 mm | - | 646 W/m² | - |
| 1777904181 | 15.56° C | 58% | 1014.5 hPa | 0 mm | - | 642 W/m² | - |
| 1777903879 | 15° C | 57% | 1014.5 hPa | 0 mm | - | 629 W/m² | - |
* Rain latest hour (hover to see other rain measurements)
** Current wind speed in m/s (hover to see current wind gust speed)